| time (UTC) | temp F | wind direction | speed MPH | gust MPH | rain 1hr in | rain 24hr in | rain mn in | humidity % | barometer mb |
| 20260903233041 | 0 | 0.0 | 0.0 | 0.00 | 0.04 | 0.02 | 1013.5 | ||
| 20260903232519 | 0 | 0.0 | 0.0 | 0.00 | 0.04 | 0.02 | 1013.5 | ||
| 20260903232016 | 0 | 0.0 | 0.0 | 0.00 | 0.04 | 0.02 | 1013.4 | ||
| 20260903231535 | 0 | 0.0 | 0.0 | 0.00 | 0.04 | 0.02 | 1013.3 | ||
| 20260903231016 | 0 | 0.0 | 0.0 | 0.00 | 0.04 | 0.02 | 1013.3 | ||
| 20260903230523 | 0 | 0.0 | 0.0 | 0.00 | 0.04 | 0.02 | 1013.3 | ||
| 20260903230036 | 0 | 0.0 | 0.0 | 0.00 | 0.04 | 0.02 | 1013.3 | ||
| 20260903225524 | 0 | 0.0 | 0.0 | 0.00 | 0.04 | 0.02 | 1013.2 | ||
| 20260903225020 | 0 | 0.0 | 0.0 | 0.00 | 0.04 | 0.02 | 1013.3 | ||
| 20260903224537 | 0 | 0.0 | 0.0 | 0.00 | 0.04 | 0.02 | 1013.5 | ||
| 20260903224020 | 0 | 0.0 | 0.0 | 0.00 | 0.04 | 0.02 | 1013.4 | ||
| 20260903223518 | 0 | 0.0 | 0.0 | 0.00 | 0.04 | 0.02 | 1013.4 | ||
| 20260903223038 | 0 | 0.0 | 0.0 | 0.00 | 0.04 | 0.02 | 1013.5 | ||
| 20260903222518 | 0 | 0.0 | 0.0 | 0.00 | 0.04 | 0.02 | 1013.4 | ||
| 20260903222020 | 0 | 0.0 | 0.0 | 0.00 | 0.04 | 0.02 | 1013.4 | ||
| 20260903221537 | 0 | 0.0 | 0.0 | 0.00 | 0.11 | 0.02 | 1013.5 | ||
| 20260903221018 | 0 | 0.0 | 0.0 | 0.00 | 0.15 | 0.02 | 1013.6 | ||
| 20260903220518 | 0 | 0.0 | 0.0 | 0.00 | 0.17 | 0.02 | 1013.6 | ||
| 20260903220035 | 0 | 0.0 | 0.0 | 0.00 | 0.19 | 0.02 | 1013.7 | ||
| 20260903215518 | 0 | 0.0 | 0.0 | 0.00 | 0.22 | 0.02 | 1013.9 | ||
| 20260903215019 | 0 | 0.0 | 0.0 | 0.00 | 0.31 | 0.02 | 1013.9 | ||
| 20260903214534 | 0 | 0.0 | 0.0 | 0.00 | 0.38 | 0.02 | 1014.1 | ||
| 20260903214021 | 0 | 0.0 | 0.0 | 0.00 | 0.46 | 0.02 | 1014.1 | ||
| 20260903213520 | 0 | 0.0 | 0.0 | 0.00 | 0.51 | 0.02 | 1014.2 | ||
| 20260903213046 | 0 | 0.0 | 0.0 | 0.00 | 0.52 | 0.02 | 1014.2 | ||
| 20260903212518 | 0 | 0.0 | 0.0 | 0.00 | 0.52 | 0.02 | 1014.3 | ||
| 20260903212017 | 0 | 0.0 | 0.0 | 0.00 | 0.52 | 0.02 | 1014.2 | ||
| 20260903211536 | 0 | 0.0 | 0.0 | 0.00 | 0.52 | 0.02 | 1014.3 | ||
| 20260903211018 | 0 | 0.0 | 0.0 | 0.00 | 0.52 | 0.02 | 1014.4 | ||
| 20260903210518 | 0 | 0.0 | 0.0 | 0.00 | 0.52 | 0.02 | 1014.4 | ||
| 20260903210034 | 0 | 0.0 | 0.0 | 0.00 | 0.52 | 0.02 | 1014.4 | ||
| 20260903205523 | 0 | 0.0 | 0.0 | 0.00 | 0.52 | 0.02 | 1014.4 | ||
| 20260903205022 | 0 | 0.0 | 0.0 | 0.00 | 0.52 | 0.02 | 1014.6 | ||
| 20260903204540 | 0 | 0.0 | 0.0 | 0.00 | 0.52 | 0.02 | 1014.6 | ||
| 20260903204018 | 0 | 0.0 | 0.0 | 0.00 | 0.52 | 0.02 | 1014.5 | ||
| 20260903203516 | 0 | 0.0 | 0.0 | 0.00 | 0.52 | 0.02 | 1014.6 | ||
| 20260903203034 | 86 | 0.0 | 0.0 | 0.00 | 0.52 | 0.02 | 80 | 1014.7 | |
| 20260903202516 | 86 | 174 | 0.0 | 2.0 | 0.00 | 0.52 | 0.02 | 80 | 1014.7 |
| 20260903202011 | 86 | 174 | 0.0 | 4.0 | 0.00 | 0.52 | 0.02 | 81 | 1014.6 |
| 20260903201536 | 86 | 145 | 1.0 | 3.0 | 0.00 | 0.52 | 0.02 | 78 | 1014.4 |
| 20260903201021 | 86 | 360 | 0.0 | 3.0 | 0.00 | 0.52 | 0.02 | 80 | 1014.5 |
| 20260903200514 | 86 | 186 | 0.0 | 3.0 | 0.00 | 0.52 | 0.02 | 79 | 1014.4 |
| 20260903200003 | 86 | 87 | 0.0 | 2.0 | 0.00 | 0.52 | 0.02 | 83 | 1014.6 |
| 20260903195518 | 84 | 185 | 0.0 | 2.0 | 0.00 | 0.52 | 0.02 | 82 | 1014.7 |
| 20260903195002 | 85 | 61 | 0.0 | 3.0 | 0.00 | 0.52 | 0.02 | 82 | 1014.6 |
| 20260903194510 | 85 | 45 | 0.0 | 3.0 | 0.00 | 0.52 | 0.02 | 85 | 1014.7 |
| 20260903194023 | 84 | 43 | 0.0 | 5.0 | 0.00 | 0.52 | 0.02 | 84 | 1015.0 |
| 20260903193516 | 84 | 221 | 1.0 | 5.0 | 0.00 | 0.52 | 0.02 | 85 | 1015.2 |
| 20260903193016 | 84 | 236 | 1.0 | 3.0 | 0.00 | 0.52 | 0.02 | 87 | 1015.3 |
| 20260903192509 | 84 | 221 | 0.0 | 3.0 | 0.00 | 0.52 | 0.02 | 88 | 1015.3 |
| 20260903192004 | 83 | 213 | 0.0 | 3.0 | 0.00 | 0.52 | 0.02 | 87 | 1015.3 |
| 20260903191503 | 83 | 263 | 1.0 | 3.0 | 0.00 | 0.52 | 0.02 | 89 | 1015.4 |
| 20260903191005 | 82 | 244 | 0.0 | 2.0 | 0.00 | 0.52 | 0.02 | 91 | 1015.5 |
| 20260903190520 | 82 | 62 | 0.0 | 2.0 | 0.00 | 0.52 | 0.02 | 90 | 1015.7 |
| 20260903190003 | 82 | 62 | 1.0 | 2.0 | 0.00 | 0.52 | 0.02 | 91 | 1015.7 |
| 20260903185502 | 82 | 314 | 0.0 | 3.0 | 0.01 | 0.52 | 0.02 | 90 | 1015.8 |
| 20260903185018 | 82 | 166 | 0.0 | 3.0 | 0.01 | 0.52 | 0.02 | 89 | 1015.8 |
| 20260903184507 | 82 | 166 | 0.0 | 3.0 | 0.01 | 0.52 | 0.02 | 90 | 1015.7 |
| 20260903184016 | 82 | 163 | 0.0 | 2.0 | 0.01 | 0.52 | 0.02 | 91 | 1015.6 |
| 20260903183516 | 81 | 78 | 0.0 | 2.0 | 0.01 | 0.52 | 0.02 | 91 | 1015.4 |
| 20260903183036 | 80 | 194 | 0.0 | 4.0 | 0.01 | 0.52 | 0.02 | 91 | 1015.3 |
| 20260903182518 | 80 | 207 | 0.0 | 4.0 | 0.01 | 0.52 | 0.02 | 92 | 1015.3 |
| 20260903182006 | 79 | 121 | 0.0 | 2.0 | 0.01 | 0.52 | 0.02 | 93 | 1015.3 |
| 20260903181536 | 79 | 39 | 0.0 | 2.0 | 0.01 | 0.52 | 0.02 | 93 | 1015.2 |
| 20260903181016 | 79 | 63 | 0.0 | 2.0 | 0.01 | 0.52 | 0.02 | 93 | 1015.2 |
| 20260903180510 | 79 | 263 | 0.0 | 2.0 | 0.01 | 0.52 | 0.02 | 93 | 1015.3 |
| 20260903180028 | 79 | 263 | 0.0 | 3.0 | 0.01 | 0.52 | 0.02 | 93 | 1015.5 |
| 20260903175503 | 79 | 263 | 0.0 | 2.0 | 0.00 | 0.51 | 0.01 | 93 | 1015.6 |
| 20260903175015 | 79 | 302 | 0.0 | 2.0 | 0.00 | 0.51 | 0.01 | 93 | 1015.7 |
| 20260903174503 | 79 | 51 | 0.0 | 2.0 | 0.00 | 0.51 | 0.01 | 93 | 1015.9 |
| 20260903174003 | 78 | 46 | 0.0 | 2.0 | 0.00 | 0.51 | 0.01 | 93 | 1016.1 |
| 20260903173521 | 79 | 51 | 0.0 | 1.0 | 0.00 | 0.51 | 0.01 | 93 | 1016.2 |
| 20260903173009 | 79 | 63 | 0.0 | 1.0 | 0.00 | 0.51 | 0.01 | 93 | 1016.3 |
| 20260903172505 | 79 | 68 | 0.0 | 1.0 | 0.00 | 0.51 | 0.01 | 93 | 1016.4 |
| 20260903172016 | 79 | 67 | 0.0 | 0.0 | 0.00 | 0.51 | 0.01 | 93 | 1016.5 |
| 20260903171544 | 0 | 0.0 | 0.0 | 0.00 | 0.51 | 0.01 | 1016.6 | ||
| 20260903171018 | 0 | 0.0 | 0.0 | 0.00 | 0.51 | 0.01 | 1016.6 | ||
| 20260903170518 | 0 | 0.0 | 0.0 | 0.00 | 0.51 | 0.01 | 1016.7 | ||
| 20260903170043 | 0 | 0.0 | 0.0 | 0.00 | 0.51 | 0.01 | 1016.7 | ||
| 20260903165519 | 0 | 0.0 | 0.0 | 0.00 | 0.51 | 0.01 | 1016.8 | ||
| 20260903165021 | 0 | 0.0 | 0.0 | 0.00 | 0.51 | 0.01 | 1016.8 | ||
| 20260903164534 | 0 | 0.0 | 0.0 | 0.00 | 0.51 | 0.01 | 1016.7 | ||
| 20260903164020 | 0 | 0.0 | 0.0 | 0.00 | 0.51 | 0.01 | 1016.6 | ||
| 20260903163518 | 0 | 0.0 | 0.0 | 0.00 | 0.51 | 0.01 | 1016.5 | ||
| 20260903163042 | 0 | 0.0 | 0.0 | 0.00 | 0.51 | 0.01 | 1016.4 | ||
| 20260903162516 | 0 | 0.0 | 0.0 | 0.00 | 0.51 | 0.01 | 1016.6 | ||
| 20260903162019 | 0 | 0.0 | 0.0 | 0.00 | 0.51 | 0.01 | 1016.7 | ||
| 20260903161534 | 0 | 0.0 | 0.0 | 0.00 | 0.51 | 0.01 | 1016.8 | ||
| 20260903161019 | 0 | 0.0 | 0.0 | 0.00 | 0.51 | 0.01 | 1016.9 | ||
| 20260903160518 | 0 | 0.0 | 0.0 | 0.00 | 0.51 | 0.01 | 1016.9 | ||
| 20260903160037 | 0 | 0.0 | 0.0 | 0.00 | 0.51 | 0.01 | 1016.7 | ||
| 20260903155521 | 81 | 0.0 | 0.0 | 0.00 | 0.51 | 0.01 | 1016.6 | ||
| 20260903155019 | 81 | 0.0 | 2.0 | 0.00 | 0.51 | 0.01 | 91 | 1016.5 | |
| 20260903154533 | 81 | 203 | 0.0 | 3.0 | 0.00 | 0.51 | 0.01 | 91 | 1016.5 |
| 20260903154020 | 81 | 113 | 0.0 | 3.0 | 0.00 | 0.51 | 0.01 | 91 | 1016.5 |
| 20260903153517 | 81 | 220 | 0.0 | 2.0 | 0.00 | 0.51 | 0.01 | 92 | 1016.3 |
| 20260903153027 | 81 | 220 | 0.0 | 2.0 | 0.00 | 0.51 | 0.01 | 93 | 1016.1 |
| 20260903152504 | 81 | 220 | 0.0 | 1.0 | 0.00 | 0.51 | 0.01 | 93 | 1016.2 |
| 20260903152018 | 80 | 220 | 0.0 | 2.0 | 0.00 | 0.51 | 0.01 | 93 | 1016.4 |
| 20260903151509 | 80 | 220 | 0.0 | 2.0 | 0.00 | 0.51 | 0.01 | 94 | 1016.2 |
| 20260903151018 | 80 | 221 | 0.0 | 2.0 | 0.00 | 0.51 | 0.01 | 94 | 1016.1 |
| 20260903150507 | 80 | 219 | 0.0 | 2.0 | 0.00 | 0.51 | 0.01 | 95 | 1016.1 |
| 20260903150033 | 79 | 233 | 1.0 | 2.0 | 0.00 | 0.52 | 0.01 | 94 | 1016.2 |
| 20260903145507 | 79 | 227 | 0.0 | 3.0 | 0.00 | 0.70 | 0.01 | 95 | 1016.2 |
| 20260903145023 | 79 | 0.0 | 0.0 | 0.00 | 0.83 | 0.01 | 95 | 1016.3 | |
| 20260903144540 | 79 | 200 | 0.0 | 2.0 | 0.00 | 0.91 | 0.01 | 95 | 1016.2 |
| 20260903144019 | 79 | 195 | 1.0 | 3.0 | 0.00 | 0.97 | 0.01 | 94 | 1016.1 |
| 20260903143513 | 79 | 202 | 0.0 | 3.0 | 0.00 | 1.05 | 0.01 | 94 | 1016.1 |
| 20260903143027 | 79 | 360 | 0.0 | 3.0 | 0.00 | 1.10 | 0.01 | 94 | 1016.2 |
| 20260903142519 | 78 | 221 | 0.0 | 2.0 | 0.00 | 1.14 | 0.01 | 94 | 1016.2 |
| 20260903142014 | 78 | 221 | 0.0 | 2.0 | 0.00 | 1.16 | 0.01 | 94 | 1016.1 |
| 20260903141528 | 78 | 352 | 0.0 | 2.0 | 0.00 | 1.19 | 0.01 | 94 | 1016.2 |
| 20260903141016 | 78 | 352 | 0.0 | 2.0 | 0.00 | 1.24 | 0.01 | 94 | 1016.3 |
| 20260903140506 | 78 | 352 | 0.0 | 2.0 | 0.00 | 1.25 | 0.01 | 94 | 1016.3 |
| 20260903140015 | 78 | 360 | 0.0 | 2.0 | 0.00 | 1.29 | 0.01 | 94 | 1016.4 |
| 20260903135509 | 78 | 44 | 0.0 | 3.0 | 0.00 | 1.31 | 0.01 | 94 | 1016.2 |
| 20260903135008 | 78 | 360 | 0.0 | 3.0 | 0.00 | 1.33 | 0.01 | 94 | 1016.2 |
| 20260903134513 | 78 | 90 | 0.0 | 1.0 | 0.00 | 1.36 | 0.01 | 94 | 1016.2 |
| 20260903134010 | 78 | 93 | 0.0 | 1.0 | 0.00 | 1.40 | 0.01 | 94 | 1016.3 |
| 20260903133511 | 78 | 93 | 0.0 | 2.0 | 0.00 | 1.43 | 0.01 | 94 | 1016.3 |
| 20260903133021 | 77 | 88 | 0.0 | 2.0 | 0.00 | 1.45 | 0.01 | 94 | 1016.2 |
| 20260903132515 | 77 | 85 | 0.0 | 2.0 | 0.00 | 1.45 | 0.01 | 94 | 1016.3 |
| 20260903132013 | 77 | 46 | 0.0 | 2.0 | 0.00 | 1.45 | 0.01 | 94 | 1016.4 |
| 20260903131527 | 77 | 46 | 0.0 | 2.0 | 0.00 | 1.45 | 0.01 | 94 | 1016.4 |
| 20260903131016 | 77 | 31 | 0.0 | 2.0 | 0.00 | 1.45 | 0.01 | 94 | 1016.3 |
| 20260903130518 | 77 | 121 | 0.0 | 2.0 | 0.00 | 1.45 | 0.01 | 94 | 1016.3 |
| 20260903130030 | 77 | 121 | 0.0 | 2.0 | 0.00 | 1.45 | 0.01 | 94 | 1016.2 |
| 20260903125514 | 77 | 121 | 0.0 | 2.0 | 0.00 | 1.45 | 0.01 | 94 | 1016.2 |
| 20260903125007 | 77 | 187 | 0.0 | 1.0 | 0.00 | 1.45 | 0.01 | 94 | 1016.0 |
| 20260903124535 | 77 | 187 | 0.0 | 1.0 | 0.00 | 1.45 | 0.01 | 94 | 1015.9 |
| 20260903124008 | 77 | 187 | 0.0 | 2.0 | 0.00 | 1.45 | 0.01 | 94 | 1015.8 |
| 20260903123525 | 77 | 187 | 1.0 | 2.0 | 0.00 | 1.45 | 0.01 | 94 | 1015.8 |
| 20260903123020 | 77 | 187 | 0.0 | 1.0 | 0.00 | 1.45 | 0.01 | 94 | 1015.7 |
| 20260903122514 | 77 | 187 | 0.0 | 1.0 | 0.00 | 1.45 | 0.01 | 94 | 1015.6 |
| 20260903122016 | 77 | 191 | 0.0 | 0.0 | 0.00 | 1.46 | 0.01 | 94 | 1015.5 |
| 20260903121535 | 77 | 191 | 0.0 | 1.0 | 0.00 | 1.47 | 0.01 | 94 | 1015.3 |
| 20260903121015 | 77 | 191 | 0.0 | 1.0 | 0.00 | 1.48 | 0.01 | 94 | 1015.1 |
| 20260903120515 | 77 | 191 | 0.0 | 1.0 | 0.00 | 1.50 | 0.01 | 94 | 1015.0 |
| 20260903120038 | 77 | 191 | 0.0 | 1.0 | 0.00 | 1.50 | 0.01 | 94 | 1015.0 |
| 20260903115516 | 77 | 191 | 0.0 | 1.0 | 0.01 | 1.50 | 0.01 | 94 | 1015.0 |
| 20260903115017 | 77 | 191 | 0.0 | 1.0 | 0.01 | 1.51 | 0.01 | 94 | 1015.1 |
| 20260903114531 | 77 | 191 | 0.0 | 1.0 | 0.01 | 1.51 | 0.01 | 94 | 1015.0 |
| 20260903114015 | 77 | 191 | 0.0 | 0.0 | 0.01 | 1.52 | 0.01 | 94 | 1015.0 |
| 20260903113518 | 77 | 191 | 0.0 | 0.0 | 0.01 | 1.53 | 0.01 | 94 | 1015.0 |
| 20260903113035 | 77 | 191 | 0.0 | 0.0 | 0.01 | 1.55 | 0.01 | 94 | 1015.0 |
| 20260903112513 | 77 | 191 | 0.0 | 0.0 | 0.01 | 1.55 | 0.01 | 94 | 1015.1 |
| 20260903112013 | 77 | 191 | 0.0 | 1.0 | 0.01 | 1.56 | 0.01 | 94 | 1015.1 |
| 20260903111503 | 77 | 191 | 0.0 | 1.0 | 0.01 | 1.57 | 0.01 | 94 | 1015.1 |
| 20260903111006 | 77 | 191 | 0.0 | 0.0 | 0.01 | 1.58 | 0.01 | 94 | 1015.1 |
| 20260903110505 | 77 | 191 | 0.0 | 0.0 | 0.01 | 1.61 | 0.01 | 94 | 1015.1 |
| 20260903110004 | 77 | 191 | 0.0 | 0.0 | 0.01 | 1.66 | 0.01 | 94 | 1015.0 |
| 20260903105503 | 77 | 191 | 0.0 | 0.0 | 0.00 | 1.68 | 0.00 | 94 | 1015.1 |
| 20260903105003 | 77 | 191 | 0.0 | 0.0 | 0.00 | 1.73 | 0.00 | 94 | 1015.1 |
| 20260903104504 | 77 | 191 | 0.0 | 1.0 | 0.00 | 1.75 | 0.00 | 94 | 1015.2 |
| 20260903104002 | 77 | 191 | 0.0 | 1.0 | 0.00 | 1.78 | 0.00 | 94 | 1015.0 |
| 20260903103503 | 77 | 191 | 0.0 | 1.0 | 0.00 | 1.80 | 0.00 | 94 | 1015.1 |
| 20260903103003 | 77 | 191 | 0.0 | 1.0 | 0.00 | 1.81 | 0.00 | 94 | 1015.0 |
| 20260903102503 | 77 | 191 | 0.0 | 1.0 | 0.00 | 1.81 | 0.00 | 94 | 1015.1 |
| 20260903102005 | 77 | 191 | 0.0 | 1.0 | 0.00 | 1.83 | 0.00 | 94 | 1015.0 |
| 20260903101508 | 77 | 191 | 0.0 | 1.0 | 0.00 | 1.87 | 0.00 | 94 | 1014.9 |
| 20260903101002 | 77 | 191 | 0.0 | 1.0 | 0.00 | 1.93 | 0.00 | 94 | 1014.8 |
| 20260903100503 | 77 | 191 | 0.0 | 1.0 | 0.00 | 1.96 | 0.00 | 94 | 1014.7 |
| 20260903100003 | 77 | 191 | 0.0 | 1.0 | 0.00 | 1.98 | 0.00 | 94 | 1014.7 |
| 20260903095503 | 77 | 191 | 0.0 | 1.0 | 0.00 | 1.99 | 0.00 | 94 | 1014.8 |
| 20260903095004 | 77 | 191 | 0.0 | 1.0 | 0.00 | 2.00 | 0.00 | 94 | 1014.6 |
| 20260903094503 | 77 | 191 | 0.0 | 2.0 | 0.00 | 2.01 | 0.00 | 94 | 1014.6 |
| 20260903094005 | 77 | 175 | 0.0 | 2.0 | 0.00 | 2.02 | 0.00 | 94 | 1014.6 |
| 20260903093504 | 77 | 94 | 0.0 | 2.0 | 0.00 | 2.04 | 0.00 | 94 | 1014.5 |
| 20260903093002 | 77 | 123 | 0.0 | 3.0 | 0.00 | 2.08 | 0.00 | 94 | 1014.5 |
| 20260903092506 | 77 | 177 | 0.0 | 3.0 | 0.00 | 2.14 | 0.00 | 94 | 1014.6 |
| 20260903092002 | 77 | 173 | 0.0 | 3.0 | 0.00 | 2.17 | 0.00 | 94 | 1014.4 |
| 20260903091502 | 77 | 166 | 0.0 | 3.0 | 0.00 | 2.20 | 0.00 | 94 | 1014.4 |
| 20260903091006 | 77 | 123 | 0.0 | 3.0 | 0.00 | 2.22 | 0.00 | 94 | 1014.4 |
| 20260903090502 | 77 | 197 | 0.0 | 2.0 | 0.00 | 2.23 | 0.00 | 94 | 1014.4 |
| 20260903090003 | 77 | 36 | 0.0 | 1.0 | 0.00 | 2.24 | 0.00 | 94 | 1014.6 |
| 20260903085503 | 77 | 36 | 0.0 | 0.0 | 0.00 | 2.26 | 0.00 | 94 | 1014.5 |
| 20260903085002 | 77 | 36 | 0.0 | 1.0 | 0.00 | 2.28 | 0.00 | 94 | 1014.5 |
| 20260903084504 | 77 | 36 | 0.0 | 1.0 | 0.00 | 2.29 | 0.00 | 94 | 1014.5 |
| 20260903084004 | 77 | 36 | 0.0 | 1.0 | 0.00 | 2.31 | 0.00 | 94 | 1014.5 |
| 20260903083503 | 77 | 36 | 0.0 | 0.0 | 0.00 | 2.45 | 0.00 | 94 | 1014.5 |
| 20260903083005 | 77 | 36 | 0.0 | 1.0 | 0.00 | 2.59 | 0.00 | 94 | 1014.6 |
| 20260903082503 | 77 | 36 | 0.0 | 2.0 | 0.00 | 2.66 | 0.00 | 94 | 1014.6 |
| 20260903082004 | 77 | 36 | 0.0 | 2.0 | 0.00 | 2.85 | 0.00 | 94 | 1014.6 |
| 20260903081507 | 77 | 321 | 0.0 | 2.0 | 0.00 | 2.98 | 0.00 | 94 | 1014.5 |
| 20260903081002 | 78 | 321 | 0.0 | 2.0 | 0.00 | 3.00 | 0.00 | 94 | 1014.5 |
| 20260903080504 | 77 | 51 | 0.0 | 2.0 | 0.00 | 3.10 | 0.00 | 94 | 1014.5 |
| 20260903080008 | 77 | 57 | 0.0 | 1.0 | 0.00 | 3.14 | 0.00 | 94 | 1014.4 |
| 20260903075503 | 77 | 113 | 0.0 | 3.0 | 0.00 | 3.25 | 0.00 | 94 | 1014.4 |
| 20260903075003 | 77 | 164 | 0.0 | 3.0 | 0.00 | 3.30 | 0.00 | 94 | 1014.4 |
| 20260903074511 | 77 | 240 | 0.0 | 3.0 | 0.00 | 3.33 | 0.00 | 94 | 1014.4 |
| 20260903074004 | 77 | 162 | 0.0 | 3.0 | 0.00 | 3.35 | 0.00 | 94 | 1014.4 |
| 20260903073504 | 77 | 182 | 0.0 | 3.0 | 0.00 | 3.37 | 0.00 | 94 | 1014.3 |
| 20260903073008 | 78 | 209 | 0.0 | 5.0 | 0.00 | 3.44 | 0.00 | 94 | 1014.4 |
| 20260903072504 | 78 | 196 | 1.0 | 5.0 | 0.00 | 3.52 | 0.00 | 94 | 1014.5 |
| 20260903072004 | 77 | 166 | 0.0 | 5.0 | 0.00 | 3.60 | 0.00 | 94 | 1014.4 |
| 20260903071508 | 77 | 153 | 1.0 | 5.0 | 0.00 | 3.76 | 0.00 | 94 | 1014.4 |
| 20260903071003 | 77 | 155 | 1.0 | 4.0 | 0.00 | 3.90 | 0.00 | 94 | 1014.4 |
| 20260903070508 | 78 | 254 | 1.0 | 5.0 | 0.00 | 4.02 | 0.00 | 94 | 1014.5 |
| 20260903070015 | 78 | 203 | 2.0 | 5.0 | 0.00 | 4.21 | 0.00 | 94 | 1014.6 |
| 20260903065507 | 78 | 205 | 2.0 | 4.0 | 0.00 | 4.27 | 0.00 | 94 | 1014.6 |
| 20260903065007 | 78 | 247 | 1.0 | 5.0 | 0.00 | 4.30 | 0.00 | 94 | 1014.6 |
| 20260903064511 | 78 | 229 | 1.0 | 4.0 | 0.00 | 4.33 | 0.00 | 94 | 1014.6 |
| 20260903064004 | 78 | 244 | 1.0 | 6.0 | 0.00 | 4.37 | 0.00 | 94 | 1014.7 |
| 20260903063504 | 78 | 173 | 2.0 | 6.0 | 0.00 | 4.38 | 0.00 | 94 | 1014.7 |
| 20260903063016 | 77 | 242 | 2.0 | 5.0 | 0.00 | 4.38 | 0.00 | 94 | 1014.7 |
| 20260903062506 | 77 | 180 | 0.0 | 4.0 | 0.00 | 4.38 | 0.00 | 94 | 1014.7 |
| 20260903062008 | 77 | 128 | 0.0 | 5.0 | 0.00 | 4.38 | 0.00 | 94 | 1014.7 |
| 20260903061511 | 77 | 211 | 2.0 | 4.0 | 0.00 | 4.38 | 0.00 | 94 | 1014.6 |
| 20260903061012 | 77 | 107 | 0.0 | 5.0 | 0.00 | 4.38 | 0.00 | 94 | 1014.7 |
| 20260903060507 | 77 | 265 | 2.0 | 5.0 | 0.00 | 4.38 | 0.00 | 94 | 1014.8 |
| 20260903060013 | 77 | 165 | 1.0 | 7.0 | 0.00 | 4.38 | 0.00 | 94 | 1014.8 |
| 20260903055509 | 77 | 163 | 2.0 | 7.0 | 0.00 | 4.38 | 0.00 | 94 | 1014.9 |
| 20260903055007 | 77 | 196 | 1.0 | 7.0 | 0.00 | 4.38 | 0.00 | 94 | 1014.9 |
| 20260903054518 | 77 | 262 | 2.0 | 7.0 | 0.00 | 4.38 | 0.00 | 94 | 1015.0 |
| 20260903054007 | 77 | 232 | 3.0 | 8.0 | 0.00 | 4.38 | 0.00 | 94 | 1015.0 |
| 20260903053509 | 77 | 171 | 3.0 | 8.0 | 0.00 | 4.38 | 0.00 | 94 | 1015.0 |
| 20260903053011 | 77 | 265 | 3.0 | 8.0 | 0.00 | 4.39 | 0.00 | 94 | 1014.9 |
| 20260903052510 | 77 | 286 | 1.0 | 8.0 | 0.00 | 4.39 | 0.00 | 94 | 1014.9 |
| 20260903052011 | 77 | 225 | 2.0 | 7.0 | 0.00 | 4.39 | 0.00 | 94 | 1014.8 |
| 20260903051518 | 77 | 272 | 1.0 | 6.0 | 0.00 | 4.39 | 0.00 | 94 | 1014.7 |
| 20260903051009 | 77 | 201 | 2.0 | 8.0 | 0.00 | 4.40 | 0.00 | 94 | 1014.7 |
| 20260903050508 | 77 | 221 | 1.0 | 9.0 | 0.00 | 4.40 | 0.00 | 94 | 1014.7 |
| 20260903050007 | 77 | 190 | 4.0 | 9.0 | 0.00 | 4.40 | 0.00 | 94 | 1014.8 |
| 20260903045504 | 77 | 113 | 2.0 | 7.0 | 0.00 | 4.40 | 4.40 | 94 | 1014.7 |
| 20260903045003 | 77 | 148 | 3.0 | 9.0 | 0.00 | 4.40 | 4.40 | 94 | 1014.7 |
| 20260903044504 | 77 | 204 | 4.0 | 9.0 | 0.00 | 4.40 | 4.40 | 94 | 1014.7 |
| 20260903044006 | 77 | 223 | 2.0 | 9.0 | 0.00 | 4.41 | 4.40 | 94 | 1014.7 |
| 20260903043508 | 77 | 192 | 2.0 | 7.0 | 0.00 | 4.41 | 4.40 | 94 | 1014.6 |
| 20260903043010 | 77 | 173 | 2.0 | 7.0 | 0.00 | 4.42 | 4.40 | 94 | 1014.7 |
| 20260903042502 | 77 | 188 | 2.0 | 7.0 | 0.00 | 4.42 | 4.40 | 94 | 1014.8 |
| 20260903042003 | 77 | 20 | 1.0 | 7.0 | 0.00 | 4.42 | 4.40 | 94 | 1014.8 |
| 20260903041506 | 77 | 221 | 1.0 | 7.0 | 0.00 | 4.42 | 4.40 | 94 | 1014.9 |
| 20260903041003 | 76 | 273 | 1.0 | 5.0 | 0.00 | 4.42 | 4.40 | 94 | 1015.0 |
| 20260903040506 | 76 | 75 | 0.0 | 7.0 | 0.00 | 4.42 | 4.40 | 94 | 1015.0 |
| 20260903040009 | 76 | 308 | 1.0 | 7.0 | 0.00 | 4.42 | 4.40 | 94 | 1015.0 |
| 20260903035505 | 76 | 204 | 1.0 | 6.0 | 0.00 | 4.44 | 4.40 | 94 | 1015.1 |
| 20260903035008 | 76 | 49 | 1.0 | 6.0 | 0.00 | 4.44 | 4.40 | 94 | 1015.1 |
| 20260903034507 | 76 | 124 | 0.0 | 4.0 | 0.00 | 4.44 | 4.40 | 94 | 1015.2 |
| 20260903034004 | 76 | 205 | 0.0 | 6.0 | 0.00 | 4.44 | 4.40 | 94 | 1015.2 |
| 20260903033507 | 77 | 150 | 0.0 | 6.0 | 0.00 | 4.46 | 4.40 | 94 | 1015.2 |
| 20260903033014 | 76 | 179 | 1.0 | 5.0 | 0.00 | 4.46 | 4.40 | 94 | 1015.3 |
| 20260903032506 | 76 | 220 | 2.0 | 4.0 | 0.00 | 4.46 | 4.40 | 94 | 1015.3 |
| 20260903032007 | 76 | 0.0 | 2.0 | 0.00 | 4.48 | 4.40 | 94 | 1015.3 | |
| 20260903031519 | 76 | 27 | 0.0 | 2.0 | 0.00 | 4.48 | 4.40 | 94 | 1015.3 |
| 20260903031007 | 76 | 161 | 0.0 | 2.0 | 0.00 | 4.50 | 4.40 | 94 | 1015.2 |
| 20260903030504 | 76 | 67 | 0.0 | 2.0 | 0.00 | 4.50 | 4.40 | 94 | 1015.1 |
| 20260903030013 | 76 | 207 | 0.0 | 2.0 | 0.00 | 4.51 | 4.40 | 94 | 1015.1 |
| 20260903025504 | 76 | 341 | 0.0 | 3.0 | 0.00 | 4.51 | 4.40 | 94 | 1015.1 |
| 20260903025004 | 76 | 159 | 0.0 | 3.0 | 0.00 | 4.52 | 4.40 | 94 | 1015.1 |
| 20260903024506 | 76 | 92 | 0.0 | 3.0 | 0.01 | 4.53 | 4.40 | 94 | 1015.1 |
| 20260903024008 | 76 | 360 | 0.0 | 3.0 | 0.01 | 4.54 | 4.40 | 94 | 1015.0 |
| 20260903023509 | 76 | 103 | 0.0 | 3.0 | 0.01 | 4.55 | 4.40 | 94 | 1014.9 |
| 20260903023012 | 76 | 70 | 1.0 | 3.0 | 0.01 | 4.56 | 4.40 | 94 | 1015.0 |
| 20260903022509 | 76 | 265 | 0.0 | 4.0 | 0.01 | 4.56 | 4.40 | 94 | 1015.0 |
| 20260903022009 | 76 | 265 | 1.0 | 4.0 | 0.01 | 4.57 | 4.40 | 94 | 1015.1 |
| 20260903021516 | 76 | 349 | 0.0 | 4.0 | 0.01 | 4.58 | 4.40 | 94 | 1014.9 |
| 20260903021010 | 76 | 240 | 1.0 | 4.0 | 0.01 | 4.59 | 4.40 | 94 | 1014.7 |
| 20260903020513 | 76 | 96 | 0.0 | 2.0 | 0.01 | 4.60 | 4.40 | 94 | 1014.7 |
| 20260903020032 | 76 | 129 | 0.0 | 2.0 | 0.01 | 4.61 | 4.40 | 94 | 1014.8 |
| 20260903015510 | 76 | 82 | 0.0 | 5.0 | 0.01 | 4.63 | 4.40 | 94 | 1014.8 |
| 20260903015002 | 76 | 245 | 0.0 | 5.0 | 0.01 | 4.64 | 4.40 | 94 | 1014.9 |
| 20260903014505 | 76 | 234 | 0.0 | 3.0 | 0.01 | 4.64 | 4.39 | 94 | 1014.9 |
| 20260903014007 | 76 | 118 | 0.0 | 5.0 | 0.01 | 4.65 | 4.39 | 94 | 1014.7 |
| 20260903013506 | 76 | 94 | 1.0 | 5.0 | 0.01 | 4.66 | 4.39 | 94 | 1014.5 |
| 20260903013009 | 76 | 352 | 1.0 | 5.0 | 0.01 | 4.67 | 4.39 | 94 | 1014.1 |
| 20260903012511 | 76 | 178 | 1.0 | 4.0 | 0.01 | 4.69 | 4.39 | 94 | 1014.1 |
| 20260903012011 | 76 | 341 | 0.0 | 2.0 | 0.01 | 4.69 | 4.39 | 93 | 1014.1 |
| 20260903011517 | 76 | 67 | 0.0 | 3.0 | 0.01 | 4.71 | 4.39 | 94 | 1014.2 |
| 20260903011009 | 76 | 279 | 0.0 | 4.0 | 0.01 | 4.71 | 4.39 | 94 | 1014.5 |
| 20260903010511 | 75 | 128 | 0.0 | 5.0 | 0.01 | 4.73 | 4.39 | 94 | 1014.5 |
| 20260903010021 | 75 | 266 | 0.0 | 5.0 | 0.01 | 4.73 | 4.39 | 94 | 1014.6 |
| 20260903005514 | 75 | 313 | 0.0 | 4.0 | 0.01 | 4.73 | 4.39 | 94 | 1014.5 |
| 20260903005015 | 75 | 49 | 0.0 | 4.0 | 0.01 | 4.75 | 4.39 | 94 | 1014.3 |
| 20260903004519 | 75 | 89 | 0.0 | 3.0 | 0.00 | 4.75 | 4.38 | 93 | 1014.2 |
| 20260903004010 | 75 | 78 | 1.0 | 4.0 | 0.00 | 4.75 | 4.38 | 93 | 1014.2 |
| 20260903003512 | 75 | 339 | 1.0 | 4.0 | 0.00 | 4.76 | 4.38 | 93 | 1014.2 |
| 20260903003008 | 75 | 80 | 1.0 | 0.0 | 0.00 | 4.76 | 4.38 | 93 | 1014.4 |
| 20260903002513 | 0 | 0.0 | 0.0 | 0.00 | 4.77 | 4.38 | 1014.2 | ||
| 20260903002014 | 0 | 0.0 | 0.0 | 0.00 | 4.77 | 4.38 | 1014.1 | ||
| 20260903001519 | 0 | 0.0 | 0.0 | 0.00 | 4.78 | 4.38 | 1014.0 | ||
| 20260903001014 | 0 | 0.0 | 0.0 | 0.00 | 4.78 | 4.38 | 1014.2 | ||
| 20260903000510 | 0 | 0.0 | 0.0 | 0.00 | 4.79 | 4.38 | 1014.3 | ||
| 20260903000019 | 0 | 0.0 | 0.0 | 0.00 | 4.79 | 4.38 | 1014.5 | ||
| 20260902235514 | 0 | 0.0 | 0.0 | 0.00 | 4.79 | 4.38 | 1014.5 | ||
| 20260902235012 | 0 | 0.0 | 0.0 | 0.00 | 4.79 | 4.38 | 1014.5 | ||
| 20260902234519 | 0 | 0.0 | 0.0 | 0.00 | 4.79 | 4.38 | 1014.6 | ||
| 20260902234011 | 0 | 0.0 | 0.0 | 0.00 | 4.79 | 4.38 | 1014.7 | ||
| 20260902233513 | 0 | 0.0 | 0.0 | 0.00 | 4.79 | 4.38 | 1014.8 |